Regional Weather Roundup
Issued by NWS Green Bay, WI

Home | Current Version | Previous Version | Graphics & Text | Print | Product List | Glossary Off
Versions: 1 2 3 4 5 6 7 8 9 10 11 12 13 14 15 16 17 18 19 20 21 22 23 24 25 26 27 28 29 30 31 32 33 34 35 36 37 38 39 40 41 42 43 44 45 46 47 48 49 50

000
ASUS43 KGRB 040559
RWRGRB

NORTH-CENTRAL AND NORTHEAST WISCONSIN REGIONAL WEATHER ROUNDUP
NATIONAL WEATHER SERVICE GREEN BAY WI
1200 AM CST WED MAR 04 2015

WIZ005-009-010>012-018-019-040700-
NORTH CENTRAL WISCONSIN

CITY           SKY/WX    TMP DP  RH WIND       PRES   REMARKS
IRONWOOD       CLOUDY    10   1  67 W15G24    29.77S WCI  -6
MANITOWISH WTR NOT AVBL
ARBOR VITAE    NOT AVBL
EAGLE RIVER    NOT AVBL
LAND O LAKES   NOT AVBL
RHINELANDER      N/A     11   2  67 W14G24    29.75R WCI  -5
PHILLIPS       NOT AVBL
ANTIGO         NOT AVBL
TOMAHAWK       NOT AVBL
MERRILL        NOT AVBL
$$

WIZ013-073-040700-
NORTHEAST WISCONSIN

CITY           SKY/WX    TMP DP  RH WIND       PRES   REMARKS
IRON MOUNTAIN  CLOUDY    19   8  62 W13       29.70R WCI   6
MARINETTE      CLEAR     21  10  63 NW7       29.75R
$$

WIZ017-030-035>037-045-040700-
CENTRAL WISCONSIN

CITY           SKY/WX    TMP DP  RH WIND       PRES   REMARKS
MEDFORD        NOT AVBL
WAUSAU         CLEAR     15   4  61 W14       29.79R WCI   0
MOSINEE        NOT AVBL
MARSHFIELD     CLEAR     13   3  64 NW18G25   29.84R WCI  -4
WISC RAPIDS    CLEAR     17   5  59 NW16G24   29.87R WCI   2
STEVENS POINT  NOT AVBL
WAUPACA        NOT AVBL
SHAWANO        NOT AVBL
CLINTONVILLE   NOT AVBL
$$

WIZ038-039-048-051-040700-
FOX VALLEY

CITY           SKY/WX    TMP DP  RH WIND       PRES   REMARKS
NWS GREEN BAY  CLEAR     22  12  65 W9        29.79R
APPLETON       NOT AVBL
OSHKOSH        PTCLDY    24  12  60 NW13G22   29.82R
FOND DU LAC    MOCLDY    25  13  60 W17G23    29.82R
$$

WIZ022-050-052-040700-
EAST CENTRAL WISCONSIN

CITY           SKY/WX    TMP DP  RH WIND       PRES   REMARKS
STURGEON BAY   CLEAR     21  10  63 NW10G18   29.77R
MANITOWOC      NOT AVBL
SHEBOYGAN      CLOUDY    28  15  58 NW15G22   29.80R
$$

LMZ563-521-522-541>543-040700-
LAKESHORE

STATION/POSITION TIME  TEMP    WIND        PRES    VSBY  WAVE
                       AIR SEA DIR/SP/G                  HT/PER
                 (UTC) (F)     (DEG/KT/KT) (MB)    (MI)  (FT/S)
SHEBOYGAN LKSHOR 0500   30     270/ 10/ 12 1009.9R
KEWAUNEE LKSHORE 0500   27     290/ 13/ 19 1007.1R
NORTHPORT PIER   0500   26     290/  9/ 15 1006.4R
SISTER BAY LKSHO 0500   23     300/ 16/ 18   N/A
CHAMBERS ISLAND  0500   22     300/  5/ 14 1007.5R
MENOMINEE LKSHOR 0500   25     280/  8     1008.1R
$$


USA.gov is the U.S. government's official web portal to all federal, state and local government web resources and services.